Regional Weather Roundup
Issued by NWS Goodland, KS

Home | Current Version | Previous Version | Text Only | Print | Product List | Glossary Off
Versions: 1 2 3 4 5 6 7 8 9 10 11 12 13 14 15 16 17 18 19 20 21 22 23 24 25 26 27 28 29 30 31 32 33 34 35 36 37 38 39 40 41 42 43 44 45 46 47 48 49 50

000
ASUS43 KGLD 011008
RWRGLD

GOODLAND FORECAST AREA HOURLY WEATHER ROUNDUP
NATIONAL WEATHER SERVICE GOODLAND KS
400 AM MDT MON SEP 01 2014

...OFFICIAL OBSERVATIONS...

CITY           SKY/WX    TMP DP  RH WIND       PRES   REMARKS
GOODLAND KS    CLEAR     52  50  93 NW5       29.99R
HILL CITY KS   CLEAR     61  57  87 W9        29.88R
IMPERIAL NEB   CLEAR     55  51  86 W6        29.96R
MCCOOK NEB     CLEAR     55  52  89 W8        29.93S
AKRON CO       CLOUDY    54  47  77 NW5       30.03R
BURLINGTON CO  CLEAR     53  49  86 NW7       30.00S
LIMON CO       CLOUDY    53  46  77 NW5       30.07S
$$

...UNOFFICIAL OBSERVATIONS...

CITY           SKY/WX    TMP DP  RH WIND       PRES   REMARKS
COLBY KS       CLEAR     55  55 100 NW7       29.96R
GOVE KS          N/A     61  32  33 CALM        N/A
NORTON KS      CLEAR     57  50  77 NW14      29.88R
SHARON SPRINGS   N/A     56  52  86 N10         N/A
WAKEENEY KS      N/A     61  59  92 MISG        N/A
KIT CARSON CO    N/A     58  48  69 N5          N/A
YUMA CO          N/A     52  48  86 CALM        N/A
$$


USA.gov is the U.S. government's official web portal to all federal, state and local government web resources and services.